Track GONETS M 11 (M21) now! 10-day predictions GONETS M 11 (M21) is classified as:
1 40552U 15020A 24349.12963846 .00000055 00000-0 32830-3 0 9994 2 40552 82.4869 13.7019 0017399 121.5230 238.7551 12.42883647440441